Weather History for KGFK - November, 2012

Change the Weather History Date:

Friday, November 16, 2012

  Actual Average Record
Temperature  
Mean Temperature 29 °F 26 °F  
Max Temperature 38 °F 35 °F 62 °F (2001)
Min Temperature 20 °F 17 °F -6 °F (1959)
Degree Days  
Heating Degree Days 36 39  
Month to date heating degree days 564 555  
Since 1 July heating degree days 1553 1586  
Cooling Degree Days 0 0  
Month to date cooling degree days 0 0  
Year to date cooling degree days 572 379  
Moisture  
Dew Point 20 °F    
Average Humidity 68    
Maximum Humidity 84    
Minimum Humidity 52    
Precipitation  
Precipitation 0.00 in 0.03 in 0.50 in (1988)
Month to date precipitation 0.77 0.60  
Year to date precipitation 16.69 19.85  
Snow  
Snow 0.00 in 0.30 in 5.00 in (1988)
Month to date snowfall 4.8 3.3  
Since 1 July snowfall 7.5 4.8  
Since 1 September snowfall 7.5 4.8  
Snow Depth 0.00 in    
Sea Level Pressure  
Sea Level Pressure 30.24 in    
Wind  
Wind Speed 15 mph (South)    
Max Wind Speed 26 mph    
Max Gust Speed 31 mph    
Visibility 10 miles    
Events      
T = Trace of Precipitation, MM = Missing Value Source: NWS Daily Summary

Daily Weather History Graph

Daily Weather History Graph

Search for Another Location

Airport or City:

Trip Planner

Search our weather history database for the weather conditions in past years. The results will help you decide how hot, cold, wet, or windy it might be!

Date:

Astronomy

Nov. 16, 2012 Rise Set
Actual Time 7:37 AM CST 4:49 PM CST
Civil Twilight 7:03 AM CST 5:23 PM CST
Nautical Twilight 6:25 AM CST 6:01 PM CST
Astronomical Twilight 5:48 AM CST 6:37 PM CST
Moon 10:36 AM CST (11/16) 7:47 PM CST (11/16)
Length of Visible Light 10h 20m
Length of Day
9h 12m
Waxing Crescent, 12% of the Moon is Illuminated
Nov 16
Waxing Crescent
Nov 20
First Quarter
Nov 28
Full
Dec 6
Last Quarter
Dec 13
New

Hourly Weather History & Observations

Time (CST) Temp. Windchill Dew Point Humidity Pressure Visibility Wind Dir Wind Speed Gust Speed Precip Events Conditions
12:53 AM 21.9 °F 11.0 °F 17.1 °F 82% 30.45 in 10.0 mi South 10.4 mph - N/A   Clear
1:53 AM 21.9 °F 10.4 °F 17.1 °F 82% 30.43 in 10.0 mi South 11.5 mph - N/A   Clear
2:53 AM 21.9 °F 11.0 °F 17.1 °F 82% 30.42 in 10.0 mi South 10.4 mph - N/A   Clear
3:53 AM 21.9 °F 9.8 °F 17.1 °F 82% 30.39 in 10.0 mi South 12.7 mph - N/A   Clear
4:53 AM 21.9 °F 9.8 °F 17.1 °F 82% 30.38 in 10.0 mi South 12.7 mph - N/A   Clear
5:53 AM 21.9 °F 9.8 °F 17.1 °F 82% 30.36 in 10.0 mi South 12.7 mph - N/A   Clear
6:53 AM 23.0 °F 11.1 °F 17.1 °F 78% 30.36 in 10.0 mi South 12.7 mph - N/A   Scattered Clouds
7:53 AM 24.1 °F 12.0 °F 17.1 °F 75% 30.35 in 10.0 mi South 13.8 mph - N/A   Mostly Cloudy
8:53 AM 26.1 °F 13.6 °F 18.0 °F 71% 30.33 in 10.0 mi SSE 16.1 mph - N/A   Overcast
9:53 AM 27.0 °F 13.2 °F 19.0 °F 72% 30.32 in 10.0 mi South 20.7 mph 27.6 mph N/A   Overcast
10:53 AM 30.9 °F 17.5 °F 19.9 °F 64% 30.31 in 10.0 mi South 24.2 mph 28.8 mph N/A   Mostly Cloudy
11:53 AM 32.0 °F 20.8 °F 21.0 °F 64% 30.27 in 10.0 mi South 17.3 mph - N/A   Mostly Cloudy
12:53 PM 35.1 °F 24.1 °F 21.9 °F 59% 30.22 in 10.0 mi South 19.6 mph 27.6 mph N/A   Mostly Cloudy
1:53 PM 36.0 °F 25.0 °F 23.0 °F 59% 30.18 in 10.0 mi SSE 20.7 mph 28.8 mph N/A   Overcast
2:53 PM 37.0 °F 26.4 °F 24.1 °F 59% 30.14 in 10.0 mi SSE 20.7 mph 26.5 mph N/A   Overcast
3:53 PM 37.9 °F 27.6 °F 21.9 °F 53% 30.12 in 10.0 mi SSE 20.7 mph - N/A   Overcast
4:53 PM 37.0 °F 28.1 °F 23.0 °F 57% 30.13 in 10.0 mi South 15.0 mph - N/A   Mostly Cloudy
5:53 PM 36.0 °F 26.3 °F 23.0 °F 59% 30.13 in 10.0 mi South 16.1 mph - N/A   Scattered Clouds
6:53 PM 34.0 °F 24.2 °F 23.0 °F 64% 30.13 in 10.0 mi South 15.0 mph - N/A   Scattered Clouds
7:53 PM 35.1 °F 24.8 °F 21.9 °F 59% 30.11 in 10.0 mi South 17.3 mph - N/A   Clear
8:53 PM 34.0 °F 24.2 °F 23.0 °F 64% 30.09 in 10.0 mi South 15.0 mph - N/A   Clear
9:53 PM 33.1 °F 23.9 °F 23.0 °F 66% 30.08 in 10.0 mi SSE 12.7 mph - N/A   Clear
10:53 PM 32.0 °F 24.8 °F 24.1 °F 73% 30.08 in 10.0 mi South 8.1 mph - N/A   Mostly Cloudy
11:53 PM 30.9 °F 22.8 °F 24.1 °F 76% 30.07 in 10.0 mi South 9.2 mph - N/A   Scattered Clouds